{"data":{"norad_id":53265,"epoch":"2026-05-25T03:58:09.770304Z","epoch_age_seconds":56665,"freshness":"FRESH","line1":"1 53265U 22086Z   26145.16539086  .00000643  00000+0  58515-4 0  9995","line2":"2 53265  53.2131 210.8091 0001037  83.4359 276.6751 15.08834163212617","mean_motion":15.08834163,"eccentricity":0.0001037,"inclination_deg":53.2131,"raan_deg":210.8091,"arg_perigee_deg":83.4359,"mean_anomaly_deg":276.6751,"bstar":5.8515e-5,"rev_number":21261,"period_min":95.437923882692,"perigee_km":539.043844349,"apogee_km":540.47861644198,"semimajor_km":6917.8982303955,"source":"CELESTRAK","updated_at":"2026-05-25T13:38:17.365061Z"}}